Project,Study,Ord_Occ,Event_Num,Cast_ID,Date_Time_UTC,Date_Time_PST,Lat_Dec,Lon_Dec,Sta_ID,Line,Sta,Depth,Pressure,PrQ,Temp1,Temp1Q,Temp2,Temp2Q,TempAve,Salt1,Salt1Q,Salt1_Corr,Salt2,Salt2Q,Salt2_Corr,SaltAve_Corr,Ox1,Ox1Q,Ox1_CruiseCorr,Ox1_StaCorr,Ox2,Ox2Q,Ox2_CruiseCorr,Ox2_StaCorr,OxAve_StaCorr,Ox1uM,Ox1uM_CruiseCorr,Ox1uM_StaCorr,Ox2uM,Ox2uM_CruiseCorr,Ox2uM_StaCorr,OxAveuM_StaCorr,FluorV,FluorQ,EstChl_CruiseCorr,EstChl_StaCorr,ISUSV,ISUSQ,EstNO3_CruiseCorr,EstNO3_StaCorr,SigThetaTS1,SigThetaTS1Q,SigThetaTS2,SigThetaTS2Q,BAT,XMiss,TransQ,pH,pHQ,SPAR,SPARQ,PAR,PARQ,PoT1,PoT2,DynHt,SVA,OxSat1,OxSat2,BTL_Depth,BTL_Temp,SaltB,OxB,OxBuM,Chl-a,Phaeo,NO3,NO2,NH4,PO4,SIL
CalCOFI,2007SR,010,11,2007_010u,14-Jul-2020 22:04:04,14-Jul-2020 14:04:04,32.01354,-119.23382,093.3 055.0,093.3,055.0,515.000,519.265,,6.0722,,6.0703,,6.0713,34.3277,,34.3279,34.3291,,34.3307,34.3293,0.2772,,0.2719,0.2816,1.7475,,0.2306,0.5965,0.4391,12.055,12.0961,17.7764,75.990,,35.5243,26.6504,0.0322,,,,1.6904,,37.2266,39.263,27.0180,,27.0193,,0.6332,85.3598,,7.581,,1.6256E+03,,3.3018E-04,,6.0266,6.0247,0.8397,,4.002,25.223,515,6.072,34.3324,0.292,12.74,,,39.80,0.00,0.00,3.18,79.21
CalCOFI,2007SR,010,11,2007_010u,14-Jul-2020 22:04:11,14-Jul-2020 14:04:11,32.01354,-119.23382,093.3 055.0,093.3,055.0,514.000,518.255,,6.0734,,6.0749,,6.0742,34.3276,,34.3278,34.3287,,34.3303,34.3291,0.2773,,0.2721,0.2817,1.7365,,0.2043,0.5680,0.4249,12.057,12.0982,17.7782,75.513,,34.4771,26.1277,0.0321,,,,1.6973,,37.4204,39.461,27.0178,,27.0185,,0.6331,85.3626,,7.581,,1.6369E+03,,7.5593E-05,,6.0279,6.0294,0.8403,,4.002,25.067,,,,,,,,,,,,
CalCOFI,2007SR,010,11,2007_010u,14-Jul-2020 22:04:15,14-Jul-2020 14:04:15,32.01354,-119.23382,093.3 055.0,093.3,055.0,513.000,517.246,,6.0842,,6.0837,,6.0840,34.3270,,34.3272,34.3284,,34.3300,34.3286,0.2774,,0.2722,0.2818,1.7284,,0.1850,0.5470,0.4144,12.063,12.1045,17.7837,75.160,,33.7022,25.7430,0.0325,,,,1.7048,,37.6309,39.676,27.0160,,27.0171,,0.6330,85.3642,,7.581,,1.6507E+03,,-1.243E-06,,6.0388,6.0383,0.8408,,4.005,24.955,,,,,,,,,,,,
CalCOFI,2007SR,010,11,2007_010u,14-Jul-2020 22:04:17,14-Jul-2020 14:04:17,32.01354,-119.23382,093.3 055.0,093.3,055.0,512.000,516.236,,6.1064,,6.1066,,6.1065,34.3256,,34.3258,34.3269,,34.3285,34.3272,0.2847,,0.2798,0.2893,1.7314,,0.1922,0.5548,0.4221,12.379,12.4343,18.0695,75.292,,33.9920,26.0308,0.0327,,,,1.7075,,37.7068,39.753,27.0120,,27.0130,,0.6330,85.3632,,7.581,,1.6610E+03,,1.0000E-12,,6.0609,6.0611,0.8408,,4.112,25.012,,,,,,,,,,,,
CalCOFI,2007SR,010,11,2007_010u,14-Jul-2020 22:04:18,14-Jul-2020 14:04:18,32.01354,-119.23382,093.3 055.0,093.3,055.0,511.000,515.227,,6.1124,,6.1123,,6.1124,34.3250,,34.3252,34.3262,,34.3278,34.3265,0.2814,,0.2763,0.2859,1.7268,,0.1812,0.5428,0.4144,12.235,12.2840,17.9392,75.093,,33.5551,25.7472,0.0319,,,,1.7083,,37.7292,39.776,27.0108,,27.0117,,0.6324,85.3779,,7.581,,1.6478E+03,,1.0000E-12,,6.0670,6.0669,0.8408,,4.065,24.949,,,,,,,,,,,,
CalCOFI,2007SR,010,11,2007_010u,14-Jul-2020 22:04:19,14-Jul-2020 14:04:19,32.01354,-119.23382,093.3 055.0,093.3,055.0,510.000,514.217,,6.1178,,6.1177,,6.1178,34.3245,,34.3247,34.3255,,34.3271,34.3259,0.2887,,0.2840,0.2935,1.7193,,0.1633,0.5234,0.4085,12.554,12.6170,18.2277,74.764,,32.8329,25.5303,0.0316,,,,1.7076,,37.7096,39.756,27.0096,,27.0105,,0.6323,85.3788,,7.581,,1.6326E+03,,1.0000E-12,,6.0725,6.0724,0.8408,,4.171,24.843,,,,,,,,,,,,
CalCOFI,2007SR,010,11,2007_010u,14-Jul-2020 22:04:21,14-Jul-2020 14:04:21,32.01354,-119.23382,093.3 055.0,093.3,055.0,509.000,513.208,,6.1276,,6.1275,,6.1276,34.3239,,34.3241,34.3251,,34.3267,34.3254,0.2861,,0.2812,0.2908,1.7247,,0.1762,0.5374,0.4141,12.440,12.4980,18.1246,75.001,,33.3532,25.7389,0.0321,,,,1.7069,,37.6899,39.736,27.0079,,27.0089,,0.6329,85.3661,,7.580,,1.6265E+03,,1.0000E-12,,6.0823,6.0823,0.8408,,4.134,24.927,,,,,,,,,,,,
CalCOFI,2007SR,010,11,2007_010u,14-Jul-2020 22:04:21,14-Jul-2020 14:04:21,32.01354,-119.23382,093.3 055.0,093.3,055.0,508.000,512.198,,6.1353,,6.1357,,6.1355,34.3231,,34.3233,34.3241,,34.3257,34.3245,0.2887,,0.2840,0.2935,1.7242,,0.1750,0.5361,0.4148,12.556,12.6191,18.2295,74.976,,33.2983,25.7639,0.0313,,,,1.7068,,37.6871,39.733,27.0063,,27.0071,,0.6320,85.3856,,7.580,,1.6267E+03,,1.0000E-12,,6.0901,6.0905,0.8408,,4.174,24.923,,,,,,,,,,,,
CalCOFI,2007SR,010,11,2007_010u,14-Jul-2020 22:04:22,14-Jul-2020 14:04:22,32.01354,-119.23382,093.3 055.0,093.3,055.0,507.000,511.189,,6.1419,,6.1427,,6.1423,34.3227,,34.3229,34.3239,,34.3255,34.3242,0.2933,,0.2888,0.2982,1.7236,,0.1736,0.5346,0.4164,12.756,12.8279,18.4104,74.952,,33.2456,25.8280,0.0317,,,,1.7066,,37.6815,39.727,27.0051,,27.0060,,0.6320,85.3855,,7.580,,1.6300E+03,,1.0000E-12,,6.0968,6.0976,0.8408,,4.241,24.919,,,,,,,,,,,,
CalCOFI,2007SR,010,11,2007_010u,14-Jul-2020 22:04:23,14-Jul-2020 14:04:23,32.01354,-119.23380,093.3 055.0,093.3,055.0,506.000,510.179,,6.1513,,6.1520,,6.1517,34.3219,,34.3221,34.3229,,34.3245,34.3233,0.2882,,0.2834,0.2930,1.7193,,0.1633,0.5234,0.4082,12.533,12.5951,18.2087,74.764,,32.8329,25.5208,0.0317,,,,1.7066,,37.6815,39.727,27.0033,,27.0040,,0.6320,85.3855,,7.580,,1.6336E+03,,1.0000E-12,,6.1062,6.1069,0.8408,,4.168,24.862,,,,,,,,,,,,
CalCOFI,2007SR,010,11,2007_010u,14-Jul-2020 22:04:24,14-Jul-2020 14:04:24,32.01354,-119.23380,093.3 055.0,093.3,055.0,505.000,509.170,,6.1556,,6.1560,,6.1558,34.3214,,34.3216,34.3225,,34.3241,34.3229,0.2915,,0.2869,0.2964,1.7127,,0.1475,0.5063,0.4014,12.675,12.7433,18.3372,74.478,,32.2050,25.2711,0.0320,,,,1.7066,,37.6815,39.727,27.0024,,27.0031,,0.6320,85.3855,,7.580,,1.6378E+03,,1.0000E-12,,6.1107,6.1110,0.8408,,4.215,24.769,,,,,,,,,,,,
CalCOFI,2007SR,010,11,2007_010u,14-Jul-2020 22:04:25,14-Jul-2020 14:04:25,32.01354,-119.23382,093.3 055.0,093.3,055.0,504.000,508.160,,6.1585,,6.1586,,6.1586,34.3211,,34.3213,34.3222,,34.3238,34.3226,0.2960,,0.2916,0.3010,1.7149,,0.1528,0.5120,0.4065,12.873,12.9500,18.5163,74.575,,32.4180,25.4672,0.0320,,,,1.7066,,37.6815,39.727,27.0017,,27.0025,,0.6320,85.3855,,7.580,,1.6407E+03,,1.0000E-12,,6.1136,6.1137,0.8408,,4.281,24.803,,,,,,,,,,,,
CalCOFI,2007SR,010,11,2007_010u,14-Jul-2020 22:04:26,14-Jul-2020 14:04:26,32.01354,-119.23382,093.3 055.0,093.3,055.0,503.000,507.151,,6.1630,,6.1648,,6.1639,34.3211,,34.3213,34.3222,,34.3238,34.3226,0.2929,,0.2884,0.2978,1.7162,,0.1559,0.5154,0.4066,12.737,12.8081,18.3933,74.628,,32.5343,25.4638,0.0327,,,,1.7069,,37.6899,39.736,27.0012,,27.0018,,0.6322,85.3812,,7.580,,1.6409E+03,,1.0000E-12,,6.1182,6.1200,0.8408,,4.237,24.824,,,,,,,,,,,,
CalCOFI,2007SR,010,11,2007_010u,14-Jul-2020 22:04:27,14-Jul-2020 14:04:27,32.01354,-119.23382,093.3 055.0,093.3,055.0,502.000,506.141,,6.1786,,6.1791,,6.1789,34.3199,,34.3201,34.3208,,34.3224,34.3213,0.2960,,0.2916,0.3010,1.7093,,0.1394,0.4975,0.3993,12.873,12.9500,18.5163,74.331,,31.8823,25.1993,0.0325,,,,1.7080,,37.7208,39.767,26.9982,,26.9988,,0.6320,85.3854,,7.580,,1.6364E+03,,1.0000E-12,,6.1338,6.1343,0.8408,,4.283,24.733,,,,,,,,,,,,
CalCOFI,2007SR,010,11,2007_010u,14-Jul-2020 22:04:29,14-Jul-2020 14:04:29,32.01354,-119.23382,093.3 055.0,093.3,055.0,501.000,505.132,,6.1843,,6.1851,,6.1847,34.3193,,34.3195,34.3203,,34.3219,34.3207,0.2969,,0.2925,0.3020,1.7066,,0.1330,0.4905,0.3963,12.913,12.9918,18.5524,74.214,,31.6254,25.0889,0.0331,,,,1.7091,,37.7517,39.799,26.9970,,26.9977,,0.6318,85.3888,,7.580,,1.6294E+03,,1.0000E-12,,6.1396,6.1403,0.8408,,4.297,24.697,,,,,,,,,,,,
CalCOFI,2007SR,010,11,2007_010u,14-Jul-2020 22:04:30,14-Jul-2020 14:04:30,32.01354,-119.23382,093.3 055.0,093.3,055.0,500.000,504.122,,6.1882,,6.1886,,6.1884,34.3190,,34.3192,34.3201,,34.3217,34.3205,0.2957,,0.2913,0.3007,1.7100,,0.1411,0.4993,0.4000,12.858,12.9344,18.5027,74.362,,31.9504,25.2266,0.0332,,,,1.7097,,37.7685,39.816,26.9962,,26.9970,,0.6318,85.3891,,7.580,,1.6249E+03,,1.0000E-12,,6.1436,6.1440,0.8408,,4.279,24.749,,,,,,,,,,,,
CalCOFI,2007SR,010,11,2007_010u,14-Jul-2020 22:04:31,14-Jul-2020 14:04:31,32.01354,-119.23382,093.3 055.0,093.3,055.0,499.000,503.113,,6.1967,,6.1980,,6.1974,34.3187,,34.3189,34.3196,,34.3212,34.3201,0.3010,,0.2968,0.3062,1.7094,,0.1397,0.4977,0.4020,13.089,13.1755,18.7116,74.333,,31.8867,25.2992,0.0320,,,,1.7101,,37.7798,39.828,26.9949,,26.9954,,0.6323,85.3794,,7.580,,1.6243E+03,,1.0000E-12,,6.1521,6.1534,0.8408,,4.357,24.744,,,,,,,,,,,,
CalCOFI,2007SR,010,11,2007_010u,14-Jul-2020 22:04:32,14-Jul-2020 14:04:32,32.01354,-119.23382,093.3 055.0,093.3,055.0,498.000,502.103,,6.2017,,6.2019,,6.2018,34.3181,,34.3183,34.3190,,34.3206,34.3195,0.3008,,0.2966,0.3060,1.7090,,0.1387,0.4967,0.4014,13.083,13.1692,18.7062,74.316,,31.8494,25.2778,0.0324,,,,1.7104,,37.7882,39.836,26.9937,,26.9945,,0.6320,85.3855,,7.580,,1.6244E+03,,1.0000E-12,,6.1572,6.1574,0.8408,,4.355,24.741,,,,,,,,,,,,
CalCOFI,2007SR,010,11,2007_010u,14-Jul-2020 22:04:32,14-Jul-2020 14:04:32,32.01354,-119.23382,093.3 055.0,093.3,055.0,497.000,501.094,,6.2057,,6.2062,,6.2060,34.3179,,34.3181,34.3189,,34.3205,34.3193,0.2982,,0.2939,0.3033,1.7074,,0.1349,0.4926,0.3980,12.967,13.0482,18.6013,74.249,,31.7023,25.1518,0.0329,,,,1.7104,,37.7882,39.836,26.9931,,26.9938,,0.6324,85.3761,,7.580,,1.6262E+03,,1.0000E-12,,6.1613,6.1618,0.8408,,4.317,24.721,,,,,,,,,,,,
CalCOFI,2007SR,010,11,2007_010u,14-Jul-2020 22:04:33,14-Jul-2020 14:04:33,32.01354,-119.23382,093.3 055.0,093.3,055.0,496.000,500.084,,6.2106,,6.2104,,6.2105,34.3175,,34.3177,34.3185,,34.3201,34.3189,0.3026,,0.2985,0.3079,1.7043,,0.1275,0.4845,0.3962,13.161,13.2507,18.7767,74.114,,31.4059,25.0913,0.0324,,,,1.7102,,37.7826,39.830,26.9921,,26.9930,,0.6320,85.3854,,7.580,,1.6286E+03,,1.0000E-12,,6.1662,6.1660,0.8408,,4.382,24.678,,,,,,,,,,,,
CalCOFI,2007SR,010,11,2007_010u,14-Jul-2020 22:04:34,14-Jul-2020 14:04:34,32.01354,-119.23382,093.3 055.0,093.3,055.0,495.000,499.075,,6.2163,,6.2162,,6.2163,34.3169,,34.3171,34.3181,,34.3197,34.3184,0.3066,,0.3027,0.3120,1.7010,,0.1196,0.4760,0.3940,13.332,13.4292,18.9314,73.971,,31.0920,25.0117,0.0329,,,,1.7099,,37.7742,39.822,26.9909,,26.9918,,0.6320,85.3855,,7.580,,1.6310E+03,,1.0000E-12,,6.1720,6.1720,0.8408,,4.440,24.634,,,,,,,,,,,,
CalCOFI,2007SR,010,11,2007_010u,14-Jul-2020 22:04:35,14-Jul-2020 14:04:35,32.01354,-119.23382,093.3 055.0,093.3,055.0,494.000,498.066,,6.2206,,6.2209,,6.2208,34.3164,,34.3166,34.3175,,34.3191,34.3179,0.3027,,0.2986,0.3080,1.7011,,0.1198,0.4762,0.3921,13.164,13.2538,18.7794,73.972,,31.0942,24.9368,0.0328,,,,1.7093,,37.7573,39.805,26.9900,,26.9908,,0.6320,85.3855,,7.580,,1.6336E+03,,1.0000E-12,,6.1764,6.1767,0.8408,,4.384,24.637,,,,,,,,,,,,
CalCOFI,2007SR,010,11,2007_010u,14-Jul-2020 22:04:36,14-Jul-2020 14:04:36,32.01354,-119.23382,093.3 055.0,093.3,055.0,493.000,497.056,,6.2256,,6.2258,,6.2257,34.3158,,34.3160,34.3169,,34.3185,34.3173,0.3081,,0.3042,0.3136,1.6999,,0.1170,0.4731,0.3934,13.398,13.4981,18.9911,73.923,,30.9866,24.9889,0.0330,,,,1.7083,,37.7292,39.776,26.9888,,26.9896,,0.6315,85.3962,,7.580,,1.6334E+03,,1.0000E-12,,6.1815,6.1817,0.8408,,4.463,24.623,,,,,,,,,,,,
CalCOFI,2007SR,010,11,2007_010u,14-Jul-2020 22:04:37,14-Jul-2020 14:04:37,32.01354,-119.23382,093.3 055.0,093.3,055.0,492.000,496.047,,6.2338,,6.2337,,6.2338,34.3155,,34.3157,34.3166,,34.3182,34.3170,0.3047,,0.3007,0.3100,1.7013,,0.1203,0.4767,0.3934,13.249,13.3425,18.8563,73.983,,31.1183,24.9873,0.0329,,,,1.7070,,37.6927,39.739,26.9875,,26.9885,,0.6315,85.3955,,7.580,,1.6288E+03,,1.0000E-12,,6.1897,6.1896,0.8408,,4.414,24.647,,,,,,,,,,,,
CalCOFI,2007SR,010,11,2007_010u,14-Jul-2020 22:04:38,14-Jul-2020 14:04:38,32.01354,-119.23381,093.3 055.0,093.3,055.0,491.000,495.037,,6.2456,,6.2448,,6.2452,34.3145,,34.3147,34.3156,,34.3172,34.3160,0.3091,,0.3053,0.3146,1.7005,,0.1184,0.4747,0.3947,13.443,13.5450,19.0318,73.950,,31.0459,25.0389,0.0326,,,,1.7055,,37.6506,39.696,26.9852,,26.9862,,0.6316,85.3949,,7.581,,1.6236E+03,,1.0000E-12,,6.2016,6.2008,0.8408,,4.480,24.643,,,,,,,,,,,,
CalCOFI,2007SR,010,11,2007_010u,14-Jul-2020 22:04:40,14-Jul-2020 14:04:40,32.01354,-119.23380,093.3 055.0,093.3,055.0,490.000,494.028,,6.2501,,6.2505,,6.2503,34.3138,,34.3140,34.3148,,34.3164,34.3152,0.3133,,0.3097,0.3189,1.7001,,0.1174,0.4736,0.3963,13.626,13.7361,19.1973,73.930,,31.0020,25.0997,0.0323,,,,1.7035,,37.5944,39.638,26.9840,,26.9848,,0.6317,85.3916,,7.580,,1.6228E+03,,1.0000E-12,,6.2062,6.2066,0.8408,,4.541,24.639,,,,,,,,,,,,
CalCOFI,2007SR,010,11,2007_010u,14-Jul-2020 22:04:41,14-Jul-2020 14:04:41,32.01354,-119.23381,093.3 055.0,093.3,055.0,489.000,493.018,,6.2530,,6.2535,,6.2533,34.3132,,34.3134,34.3142,,34.3158,34.3146,0.3103,,0.3065,0.3158,1.6984,,0.1134,0.4692,0.3925,13.493,13.5972,19.0770,73.859,,30.8461,24.9616,0.0332,,,,1.7012,,37.5299,39.572,26.9832,,26.9839,,0.6309,85.4095,,7.581,,1.6264E+03,,1.0000E-12,,6.2091,6.2096,0.8408,,4.497,24.617,,,,,,,,,,,,
CalCOFI,2007SR,010,11,2007_010u,14-Jul-2020 22:04:42,14-Jul-2020 14:04:42,32.01354,-119.23382,093.3 055.0,093.3,055.0,488.000,492.009,,6.2598,,6.2612,,6.2605,34.3130,,34.3132,34.3140,,34.3156,34.3144,0.3169,,0.3134,0.3227,1.6955,,0.1065,0.4617,0.3922,13.781,13.8979,19.3375,73.732,,30.5673,24.9524,0.0316,,,,1.6994,,37.4793,39.521,26.9822,,26.9828,,0.6309,85.4091,,7.580,,1.6308E+03,,1.0000E-12,,6.2160,6.2174,0.8408,,4.594,24.579,,,,,,,,,,,,
CalCOFI,2007SR,010,11,2007_010u,14-Jul-2020 22:04:43,14-Jul-2020 14:04:43,32.01354,-119.23382,093.3 055.0,093.3,055.0,487.000,491.000,,6.2656,,6.2659,,6.2658,34.3125,,34.3127,34.3133,,34.3149,34.3138,0.3122,,0.3085,0.3178,1.6943,,0.1036,0.4586,0.3882,13.575,13.6828,19.1512,73.677,,30.4466,24.7989,0.0330,,,,1.6979,,37.4372,39.478,26.9811,,26.9816,,0.6309,85.4091,,7.582,,1.6301E+03,,1.0000E-12,,6.2219,6.2222,0.8408,,4.526,24.563,,,,,,,,,,,,
CalCOFI,2007SR,010,11,2007_010u,14-Jul-2020 22:04:44,14-Jul-2020 14:04:44,32.01354,-119.23382,093.3 055.0,093.3,055.0,486.000,489.990,,6.2660,,6.2662,,6.2661,34.3120,,34.3122,34.3130,,34.3146,34.3134,0.3120,,0.3083,0.3176,1.6881,,0.0888,0.4425,0.3801,13.567,13.6745,19.1439,73.408,,29.8560,24.5000,0.0329,,,,1.6966,,37.4007,39.440,26.9806,,26.9813,,0.6311,85.4058,,7.582,,1.6252E+03,,1.0000E-12,,6.2224,6.2226,0.8408,,4.523,24.474,,,,,,,,,,,,
CalCOFI,2007SR,010,11,2007_010u,14-Jul-2020 22:04:45,14-Jul-2020 14:04:45,32.01354,-119.23382,093.3 055.0,093.3,055.0,485.000,488.981,,6.2666,,6.2670,,6.2668,34.3115,,34.3117,34.3124,,34.3140,34.3129,0.3165,,0.3130,0.3223,1.6927,,0.0998,0.4545,0.3884,13.763,13.8791,19.3212,73.612,,30.3039,24.8126,0.0324,,,,1.6954,,37.3670,39.406,26.9801,,26.9808,,0.6309,85.4091,,7.582,,1.6187E+03,,1.0000E-12,,6.2231,6.2234,0.8408,,4.589,24.542,,,,,,,,,,,,
CalCOFI,2007SR,010,11,2007_010u,14-Jul-2020 22:04:45,14-Jul-2020 14:04:45,32.01354,-119.23382,093.3 055.0,093.3,055.0,484.000,487.971,,6.2673,,6.2674,,6.2674,34.3106,,34.3108,34.3116,,34.3132,34.3120,0.3187,,0.3153,0.3245,1.6930,,0.1005,0.4552,0.3899,13.860,13.9804,19.4089,73.625,,30.3324,24.8707,0.0324,,,,1.6947,,37.3473,39.386,26.9793,,26.9800,,0.6309,85.4091,,7.582,,1.6167E+03,,1.0000E-12,,6.2239,6.2240,0.8408,,4.621,24.546,,,,,,,,,,,,
CalCOFI,2007SR,010,11,2007_010u,14-Jul-2020 22:04:46,14-Jul-2020 14:04:46,32.01354,-119.23380,093.3 055.0,093.3,055.0,483.000,486.962,,6.2682,,6.2685,,6.2684,34.3104,,34.3106,34.3113,,34.3129,34.3118,0.3159,,0.3124,0.3216,1.6928,,0.1000,0.4547,0.3882,13.735,13.8499,19.2959,73.613,,30.3061,24.8010,0.0333,,,,1.6945,,37.3417,39.380,26.9790,,26.9796,,0.6309,85.4091,,7.582,,1.6185E+03,,1.0000E-12,,6.2248,6.2252,0.8408,,4.579,24.543,,,,,,,,,,,,
CalCOFI,2007SR,010,11,2007_010u,14-Jul-2020 22:04:47,14-Jul-2020 14:04:47,32.01354,-119.23381,093.3 055.0,093.3,055.0,482.000,485.953,,6.2719,,6.2717,,6.2718,34.3102,,34.3104,34.3110,,34.3126,34.3115,0.3197,,0.3164,0.3256,1.6924,,0.0991,0.4537,0.3897,13.901,14.0232,19.4460,73.598,,30.2731,24.8596,0.0326,,,,1.6944,,37.3389,39.377,26.9783,,26.9790,,0.6299,85.4311,,7.584,,1.6248E+03,,1.0000E-12,,6.2286,6.2284,0.8408,,4.635,24.540,,,,,,,,,,,,
CalCOFI,2007SR,010,11,2007_010u,14-Jul-2020 22:04:48,14-Jul-2020 14:04:48,32.01354,-119.23382,093.3 055.0,093.3,055.0,481.000,484.943,,6.2771,,6.2775,,6.2773,34.3100,,34.3102,34.3112,,34.3128,34.3115,0.3236,,0.3204,0.3296,1.6919,,0.0979,0.4524,0.3910,14.074,14.2037,19.6025,73.577,,30.2270,24.9148,0.0323,,,,1.6945,,37.3417,39.380,26.9775,,26.9784,,0.6305,85.4173,,7.584,,1.6306E+03,,1.0000E-12,,6.2339,6.2343,0.8408,,4.693,24.536,,,,,,,,,,,,
CalCOFI,2007SR,010,11,2007_010u,14-Jul-2020 22:04:49,14-Jul-2020 14:04:49,32.01354,-119.23382,093.3 055.0,093.3,055.0,480.000,483.934,,6.2833,,6.2835,,6.2834,34.3096,,34.3098,34.3105,,34.3121,34.3110,0.3188,,0.3154,0.3246,1.6914,,0.0967,0.4511,0.3879,13.865,13.9856,19.4134,73.556,,30.1809,24.7972,0.0329,,,,1.6942,,37.3333,39.372,26.9764,,26.9771,,0.6303,85.4216,,7.584,,1.6310E+03,,1.0000E-12,,6.2402,6.2404,0.8408,,4.624,24.532,,,,,,,,,,,,
CalCOFI,2007SR,010,11,2007_010u,14-Jul-2020 22:04:51,14-Jul-2020 14:04:51,32.01354,-119.23382,093.3 055.0,093.3,055.0,479.000,482.924,,6.2854,,6.2855,,6.2855,34.3093,,34.3095,34.3102,,34.3118,34.3107,0.3183,,0.3149,0.3241,1.6911,,0.0960,0.4503,0.3872,13.844,13.9637,19.3945,73.543,,30.1524,24.7735,0.0316,,,,1.6939,,37.3249,39.363,26.9758,,26.9765,,0.6311,85.4043,,7.584,,1.6237E+03,,1.0000E-12,,6.2423,6.2425,0.8408,,4.617,24.529,,,,,,,,,,,,
CalCOFI,2007SR,010,11,2007_010u,14-Jul-2020 22:04:52,14-Jul-2020 14:04:52,32.01354,-119.23382,093.3 055.0,093.3,055.0,478.000,481.915,,6.2870,,6.2873,,6.2872,34.3091,,34.3093,34.3100,,34.3116,34.3105,0.3183,,0.3149,0.3241,1.6908,,0.0952,0.4495,0.3868,13.841,13.9605,19.3917,73.530,,30.1239,24.7578,0.0330,,,,1.6939,,37.3249,39.363,26.9754,,26.9762,,0.6303,85.4221,,7.584,,1.6162E+03,,1.0000E-12,,6.2441,6.2443,0.8408,,4.617,24.526,,,,,,,,,,,,
CalCOFI,2007SR,010,11,2007_010u,14-Jul-2020 22:04:53,14-Jul-2020 14:04:53,32.01354,-119.23382,093.3 055.0,093.3,055.0,477.000,480.906,,6.2883,,6.2882,,6.2883,34.3088,,34.3090,34.3099,,34.3115,34.3103,0.3226,,0.3194,0.3286,1.6906,,0.0948,0.4490,0.3888,14.028,14.1557,19.5609,73.518,,30.0975,24.8292,0.0319,,,,1.6944,,37.3389,39.377,26.9751,,26.9759,,0.6305,85.4185,,7.584,,1.6151E+03,,1.0000E-12,,6.2454,6.2454,0.8408,,4.679,24.522,,,,,,,,,,,,
CalCOFI,2007SR,010,11,2007_010u,14-Jul-2020 22:04:54,14-Jul-2020 14:04:54,32.01354,-119.23382,093.3 055.0,093.3,055.0,476.000,479.896,,6.2899,,6.2907,,6.2903,34.3089,,34.3091,34.3098,,34.3114,34.3103,0.3282,,0.3252,0.3344,1.6903,,0.0941,0.4482,0.3913,14.272,14.4104,19.7816,73.504,,30.0668,24.9242,0.0327,,,,1.6949,,37.3530,39.392,26.9749,,26.9755,,0.6304,85.4204,,7.585,,1.6167E+03,,1.0000E-12,,6.2472,6.2479,0.8408,,4.761,24.519,,,,,,,,,,,,
CalCOFI,2007SR,010,11,2007_010u,14-Jul-2020 22:04:55,14-Jul-2020 14:04:55,32.01354,-119.23382,093.3 055.0,093.3,055.0,475.000,478.887,,6.2955,,6.2964,,6.2960,34.3084,,34.3086,34.3093,,34.3109,34.3098,0.3283,,0.3253,0.3345,1.6898,,0.0929,0.4469,0.3907,14.279,14.4177,19.7879,73.484,,30.0229,24.9054,0.0329,,,,1.6948,,37.3501,39.389,26.9738,,26.9744,,0.6306,85.4156,,7.585,,1.6167E+03,,1.0000E-12,,6.2528,6.2537,0.8408,,4.763,24.515,,,,,,,,,,,,
CalCOFI,2007SR,010,11,2007_010u,14-Jul-2020 22:04:56,14-Jul-2020 14:04:56,32.01354,-119.23382,093.3 055.0,093.3,055.0,474.000,477.878,,6.3053,,6.3063,,6.3058,34.3073,,34.3075,34.3082,,34.3098,34.3087,0.3301,,0.3272,0.3363,1.6884,,0.0895,0.4433,0.3898,14.354,14.4960,19.8557,73.425,,29.8934,24.8746,0.0312,,,,1.6947,,37.3473,39.386,26.9716,,26.9722,,0.6300,85.4281,,7.585,,1.6162E+03,,1.0000E-12,,6.2627,6.2636,0.8408,,4.790,24.501,,,,,,,,,,,,
CalCOFI,2007SR,010,11,2007_010u,14-Jul-2020 22:04:56,14-Jul-2020 14:04:56,32.01354,-119.23382,093.3 055.0,093.3,055.0,473.000,476.868,,6.3086,,6.3089,,6.3088,34.3064,,34.3066,34.3074,,34.3090,34.3078,0.3269,,0.3239,0.3330,1.6818,,0.0738,0.4262,0.3796,14.215,14.3509,19.7300,73.138,,29.2633,24.4967,0.0321,,,,1.6946,,37.3445,39.383,26.9705,,26.9712,,0.6303,85.4224,,7.584,,1.6148E+03,,1.0000E-12,,6.2660,6.2663,0.8408,,4.744,24.407,,,,,,,,,,,,
CalCOFI,2007SR,010,11,2007_010u,14-Jul-2020 22:04:57,14-Jul-2020 14:04:57,32.01354,-119.23382,093.3 055.0,093.3,055.0,472.000,475.859,,6.3113,,6.3115,,6.3114,34.3060,,34.3062,34.3070,,34.3086,34.3074,0.3306,,0.3277,0.3369,1.6813,,0.0726,0.4249,0.3809,14.377,14.5201,19.8765,73.112,,29.2062,24.5414,0.0324,,,,1.6942,,37.3333,39.372,26.9698,,26.9706,,0.6301,85.4253,,7.585,,1.6148E+03,,1.0000E-12,,6.2688,6.2690,0.8408,,4.798,24.400,,,,,,,,,,,,
CalCOFI,2007SR,010,11,2007_010u,14-Jul-2020 22:04:58,14-Jul-2020 14:04:58,32.01354,-119.23382,093.3 055.0,093.3,055.0,471.000,474.850,,6.3146,,6.3148,,6.3147,34.3054,,34.3056,34.3062,,34.3078,34.3067,0.3334,,0.3307,0.3398,1.6898,,0.0929,0.4469,0.3934,14.500,14.6485,19.9878,73.483,,30.0207,25.0043,0.0329,,,,1.6935,,37.3136,39.352,26.9689,,26.9695,,0.6303,85.4230,,7.585,,1.6148E+03,,1.0000E-12,,6.2722,6.2724,0.8408,,4.839,24.525,,,,,,,,,,,,
CalCOFI,2007SR,010,11,2007_010u,14-Jul-2020 22:04:59,14-Jul-2020 14:04:59,32.01354,-119.23381,093.3 055.0,093.3,055.0,470.000,473.840,,6.3127,,6.3132,,6.3130,34.3055,,34.3057,34.3063,,34.3079,34.3068,0.3332,,0.3305,0.3396,1.6826,,0.0757,0.4283,0.3840,14.490,14.6380,19.9787,73.173,,29.3401,24.6594,0.0323,,,,1.6919,,37.2687,39.306,26.9692,,26.9698,,0.6315,85.3966,,7.585,,1.6192E+03,,1.0000E-12,,6.2704,6.2709,0.8408,,4.836,24.421,,,,,,,,,,,,
CalCOFI,2007SR,010,11,2007_010u,14-Jul-2020 22:05:01,14-Jul-2020 14:05:01,32.01354,-119.23382,093.3 055.0,093.3,055.0,469.000,472.831,,6.3190,,6.3166,,6.3178,34.3050,,34.3052,34.3066,,34.3082,34.3067,0.3456,,0.3434,0.3524,1.6827,,0.0759,0.4285,0.3905,15.028,15.1996,20.4653,73.176,,29.3467,24.9060,0.0323,,,,1.6899,,37.2126,39.248,26.9680,,26.9696,,0.6298,85.4331,,7.585,,1.6198E+03,,1.0000E-12,,6.2768,6.2744,0.8408,,5.016,24.423,,,,,,,,,,,,
CalCOFI,2007SR,010,11,2007_010u,14-Jul-2020 22:05:03,14-Jul-2020 14:05:03,32.01354,-119.23382,093.3 055.0,093.3,055.0,468.000,471.822,,6.3385,,6.3396,,6.3391,34.3016,,34.3018,34.3028,,34.3044,34.3031,0.3465,,0.3444,0.3533,1.6805,,0.0707,0.4228,0.3881,15.069,15.2424,20.5024,73.083,,29.1426,24.8225,0.0317,,,,1.6890,,37.1873,39.222,26.9628,,26.9636,,0.6292,85.4457,,7.585,,1.6125E+03,,1.0000E-12,,6.2963,6.2974,0.8408,,5.032,24.405,,,,,,,,,,,,
CalCOFI,2007SR,010,11,2007_010u,14-Jul-2020 22:05:03,14-Jul-2020 14:05:03,32.01354,-119.23382,093.3 055.0,093.3,055.0,467.000,470.812,,6.3540,,6.3548,,6.3544,34.2998,,34.3000,34.3009,,34.3025,34.3013,0.3472,,0.3451,0.3541,1.6806,,0.0709,0.4231,0.3886,15.097,15.2717,20.5277,73.085,,29.1469,24.8373,0.0323,,,,1.6884,,37.1704,39.205,26.9594,,26.9601,,0.6287,85.4564,,7.585,,1.6059E+03,,1.0000E-12,,6.3118,6.3126,0.8408,,5.043,24.414,,,,,,,,,,,,
CalCOFI,2007SR,010,11,2007_010u,14-Jul-2020 22:05:04,14-Jul-2020 14:05:04,32.01354,-119.23382,093.3 055.0,093.3,055.0,466.000,469.803,,6.3646,,6.3642,,6.3644,34.2995,,34.2997,34.3005,,34.3021,34.3009,0.3528,,0.3509,0.3599,1.6800,,0.0695,0.4215,0.3907,15.344,15.5295,20.7511,73.057,,29.0855,24.9183,0.0324,,,,1.6874,,37.1424,39.177,26.9577,,26.9586,,0.6287,85.4562,,7.585,,1.6010E+03,,1.0000E-12,,6.3225,6.3221,0.8408,,5.127,24.410,,,,,,,,,,,,
CalCOFI,2007SR,010,11,2007_010u,14-Jul-2020 22:05:05,14-Jul-2020 14:05:05,32.01354,-119.23382,093.3 055.0,093.3,055.0,465.000,468.794,,6.3696,,6.3693,,6.3695,34.2994,,34.2996,34.3006,,34.3022,34.3009,0.3550,,0.3532,0.3621,1.6795,,0.0683,0.4202,0.3912,15.437,15.6266,20.8352,73.038,,29.0438,24.9395,0.0317,,,,1.6862,,37.1087,39.142,26.9570,,26.9579,,0.6287,85.4562,,7.585,,1.5981E+03,,1.0000E-12,,6.3276,6.3273,0.8408,,5.158,24.406,,,,,,,,,,,,
CalCOFI,2007SR,010,11,2007_010u,14-Jul-2020 22:05:05,14-Jul-2020 14:05:05,32.01354,-119.23382,093.3 055.0,093.3,055.0,464.000,467.784,,6.3735,,6.3738,,6.3737,34.2990,,34.2992,34.2998,,34.3014,34.3003,0.3551,,0.3533,0.3622,1.6791,,0.0673,0.4192,0.3907,15.444,15.6339,20.8416,73.020,,29.0043,24.9230,0.0334,,,,1.6851,,37.0778,39.111,26.9561,,26.9568,,0.6287,85.4562,,7.585,,1.5980E+03,,1.0000E-12,,6.3316,6.3318,0.8408,,5.161,24.403,,,,,,,,,,,,